This demonstration page uses our WeatherBlox Daily Observations layout. Learn more.

Left ArrowRight Arrow

34.74481, -87.66753

Hourly Observations for July 1, 2020

Temp ( °F °C ) Dew Point ( °F °C ) Humidity (%) Winds ( mph kmh ) Pressure ( in mb ) Visibility ( mi km ) Precip ( " mm )
12:16 am 00:16 Cloudy with Nearby Thunderstorms 74 23.3 69 20.6 85 85 N 10 17 29.93 1014 10 16 0.00 0.00
12:34 am 00:34 Cloudy with Strong Thunderstorms 72 22.2 68 20 87 87 NNW 23 37 29.96 1015 3 4 0.13 3.30
12:36 am 00:36 Cloudy with Strong Thunderstorms 71 21.7 68 20 90 90 N 18 30 29.96 1015 2 2 0.24 6.10
12:53 am 00:53 Cloudy with Strong Thunderstorms 70 21.1 68 20 93 93 Calm 29.93 1014 1 2 0.71 18.03
12:58 am 00:58 Cloudy with Thunderstorms 70 21.1 68 20 93 93 SE 3 6 29.95 1014 3 5 0.01 0.25
1:04 am 01:04 Cloudy with Nearby Thunderstorms 70 21.1 68 20 93 93 S 5 7 29.94 1014 7 11 0.02 0.51
1:12 am 01:12 Mostly Cloudy with Thunderstorms 70 21.1 67 19.4 90 90 SSW 7 11 29.94 1014 8 13 0.03 0.76
1:22 am 01:22 Mostly Cloudy with Thunderstorms 70 21.1 68 20 93 93 SW 10 17 29.95 1014 2 3 0.03 0.76
1:25 am 01:25 Mostly Cloudy with Nearby Thunderstorms 70 21.1 67 19.4 90 90 SW 10 17 29.95 1014 4 6 0.03 0.76
1:48 am 01:48 Partly Cloudy with Light Rain 70 21 68 20 94 94 SSE 7 11 29.94 1014 7 11 0.06 1.52
1:53 am 01:53 Partly Cloudy with Nearby Thunderstorms 70 21.1 67 19.4 90 90 SSE 8 13 29.93 1013 8 13 0.06 1.52
2:11 am 02:11 Clear with Thunderstorms 70 21.1 67 19.4 90 90 SE 8 13 29.93 1013 10 16 0.02 0.51
2:31 am 02:31 Clear with Nearby Thunderstorms 70 21.1 67 19.4 90 90 S 3 6 29.93 1013 7 11 0.05 1.27
2:46 am 02:46 Clear with Light Rain 70 21.1 67 19.4 90 90 WSW 6 9 29.94 1014 10 16 0.06 1.52
2:53 am 02:53 Clear with Nearby Thunderstorms 70 21.1 67 19.4 90 90 SW 5 7 29.92 1013 10 16 0.06 1.52
3:12 am 03:12 Partly Cloudy with Light Rain 70 21.1 67 19.4 90 90 ESE 5 7 29.91 1013 10 16 0.02 0.51
3:48 am 03:48 Cloudy with Nearby Thunderstorms 70 21 66 19 88 88 NW 6 9 29.95 1014 10 16 0.02 0.51
3:53 am 03:53 Cloudy with Nearby Thunderstorms 70 21.1 67 19.4 90 90 WNW 7 11 29.94 1014 8 13 0.03 0.76
4:07 am 04:07 Cloudy with Strong Thunderstorms 70 21.1 68 20 93 93 WSW 5 7 29.95 1014 3 5 0.07 1.78
4:14 am 04:14 Cloudy with Thunderstorms 70 21.1 68 20 93 93 S 6 9 29.93 1013 2 3 0.10 2.54
4:18 am 04:18 Cloudy with Thunderstorms 70 21.1 68 20 93 93 VRB 3 6 29.94 1014 4 6 0.11 2.79
4:22 am 04:22 Cloudy with Thunderstorms 70 21.1 68 20 93 93 WSW 6 9 29.95 1014 4 6 0.12 3.05
4:37 am 04:37 Mostly Cloudy with Nearby Thunderstorms 70 21.1 67 19.4 90 90 SW 7 11 29.94 1014 7 11 0.13 3.30
4:53 am 04:53 Mostly Cloudy with Light Rain 70 21.1 67 19.4 90 90 SSW 8 13 29.91 1013 7 11 0.15 3.81
5:17 am 05:17 Partly Cloudy with Nearby Thunderstorms 70 21.1 68 20 93 93 SW 5 7 29.93 1013 5 8 0.05 1.27
5:32 am 05:32 Mostly Cloudy with Rain 70 21.1 67 19.4 90 90 W 3 6 29.93 1013 5 8 0.09 2.29
5:51 am 05:51 Partly Cloudy with Thunderstorms 70 21 66 19 88 88 WSW 5 7 29.93 1013 8 13 0.11 2.79
5:53 am 05:53 Partly Cloudy with Thunderstorms 70 21.1 67 19.4 90 90 WSW 5 7 29.92 1013 8 13 0.11 2.79
6:06 am 06:06 Partly Cloudy with Light Rain 70 21.1 67 19.4 90 90 WSW 7 11 29.94 1014 10 16 0.01 0.25
6:53 am 06:53 Partly Cloudy with Rain 70 21.1 67 19.4 90 90 SSW 6 9 29.93 1014 6 10 0.08 2.03
7:04 am 07:04 Partly Cloudy with Light Rain 70 21.1 67 19.4 90 90 SW 5 7 29.94 1014 9 14 0.01 0.25
7:53 am 07:53 Mostly Cloudy 71 21.7 68 20 90 90 SW 5 7 29.94 1014 10 16 0.01 0.25
8:53 am 08:53 Cloudy 72 22.2 69 20.6 91 91 SW 6 9 29.97 1015 10 16 0.01 0.25
9:53 am 09:53 Cloudy with Nearby Thunderstorms 73 22.8 69 20.6 87 87 WSW 7 11 29.97 1015 10 16 0.00 0.00
10:13 am 10:13 Cloudy with Strong Thunderstorms 73 22.8 69 20.6 87 87 W 7 11 29.98 1015 4 6 0.03 0.76
10:25 am 10:25 Cloudy with Thunderstorms 72 22.2 69 20.6 91 91 SW 10 17 29.97 1015 3 4 0.08 2.03
10:33 am 10:33 Mostly Cloudy with Thunderstorms 72 22.2 70 21.1 94 94 S 9 15 29.95 1014 10 16 0.08 2.03
10:53 am 10:53 Mostly Cloudy with Nearby Thunderstorms 73 22.8 70 21.1 90 90 WSW 6 9 29.97 1015 10 16 0.08 2.03
11:19 am 11:19 Cloudy 74 23.3 70 21.1 88 88 W 7 11 29.98 1015 10 16 0.00 0.00
11:34 am 11:34 Cloudy with Nearby Thunderstorms 74 23.3 70 21.1 88 88 VRB 5 7 29.99 1016 10 16 0.00 0.00
11:49 am 11:49 Cloudy with Light Rain 73 23 70 21 89 89 Calm 29.98 1015 9 14 0.01 0.25
11:53 am 11:53 Cloudy with Light Rain 74 23.3 70 21.1 88 88 Calm 29.99 1016 10 16 0.01 0.25
12:18 pm 12:18 Mostly Cloudy with Nearby Thunderstorms 75 23.9 70 21.1 84 84 Calm 30.00 1016 10 16 0.00 0.00
12:41 pm 12:41 Partly Cloudy with Thunderstorms 75 23.9 70 21.1 84 84 VRB 3 6 29.98 1015 10 16 0.00 0.00
12:53 pm 12:53 Mostly Cloudy with Thunderstorms 75 23.9 70 21.1 84 84 Calm 29.99 1016 10 16 0.00 0.00
12:59 pm 12:59 Mostly Cloudy with Strong Thunderstorms 75 23.9 70 21.1 84 84 Calm 29.98 1015 2 3 0.05 1.27
1:21 pm 13:21 Cloudy with Thunderstorms 73 22.8 71 21.7 94 94 SSW 7 11 29.97 1015 3 5 0.21 5.33
1:53 pm 13:53 Partly Cloudy with Nearby Thunderstorms 75 23.9 71 21.7 88 88 Calm 29.96 1015 10 16 0.21 5.33
2:53 pm 14:53 Sunny 80 26.7 71 21.7 74 74 Calm 29.92 1013 10 16 0.00 0.00
3:53 pm 15:53 Sunny 84 28.9 73 22.8 70 70 WSW 10 17 29.88 1012 10 16 0.00 0.00
4:53 pm 16:53 Sunny 85 29.4 72 22.2 65 65 WNW 10 17 29.90 1013 10 16 0.00 0.00
5:53 pm 17:53 Partly Cloudy 83 28.3 73 22.8 72 72 Calm 29.90 1013 10 16 0.00 0.00
6:53 pm 18:53 Cloudy 82 27.8 74 23.3 77 77 WSW 3 6 29.89 1012 10 16 0.00 0.00
7:00 pm 19:00 Cloudy with Nearby Thunderstorms 82 27.8 74 23.3 77 77 VRB 3 6 29.90 1013 10 16 0.00 0.00
7:22 pm 19:22 Cloudy with Rain 74 23.3 70 21.1 88 88 VRB 6 9 29.91 1013 3 4 0.05 1.27
7:30 pm 19:30 Cloudy with Light Rain 74 23.3 70 21.1 88 88 ENE 6 9 29.90 1013 4 6 0.06 1.52
7:53 pm 19:53 Mostly Cloudy 73 22.8 70 21.1 90 90 SW 8 13 29.89 1012 10 16 0.08 2.03
8:53 pm 20:53 Clear 73 22.8 70 21.1 90 90 SE 9 15 29.81 1010 10 16 0.00 0.00
9:53 pm 21:53 Clear 73 22.8 70 21.1 90 90 W 12 19 29.89 1012 10 16 0.00 0.00
10:53 pm 22:53 Mostly Cloudy 73 22.8 69 20.6 87 87 SW 3 6 29.89 1012 10 16 0.00 0.00
11:09 pm 23:09 Mostly Cloudy 73 22.8 70 21.1 90 90 NNW 10 17 29.94 1014 10 16 0.00 0.00
11:53 pm 23:53 Partly Cloudy 73 22.8 69 20.6 87 87 Calm 29.93 1014 10 16 0.00 0.00

Powered by AerisWeather